Showing default

PE2_FLT2 (TYVAK-0262), 59104

Orbit data source: Space-Track

PE2_FLT2 (TYVAK-0262), 59104 is a payload satellite owned by Tyvak NSS (US) in SSO that was launched on Mon, 04 Mar 2024 UTC via an FALCON 9 launch vehicle from the Air Force Western Test Range (AFWTR). Payload-class satellites include a variety of spacecraft equipped with specific instruments for various scientific and technological missions. These include communications satellites like Starlink; space stations such as the ISS; scientific satellites like the Hubble; Earth observation satellites from companies like Planet Labs, Umbra, and HawkEye 360; GPS; miniature CubeSats for education and research; and military/defense satellites.

Loading next visibility...
Identifier
59104, 2024-043G
Orbit
SSO
Country
Flag of USUS
Related business
Manufacturer
Tyvak NSS
Mission
Operational Commercial Technology
Bus & Motor
CUBESAT 12U, Unknown motor
Mass
26 kg wet, 26 kg dry
Launch date (UTC)
2024-03-04 (2 years ago)
Launch vehicle
FALCON 9
Launch site
Air Force Western Test Range (AFWTR)
Object type
Payload
Rocket body
Debris
Shape & HBR
Box + 2 Pan, 0.7 m
Radar Cross Section
0.149 m², Medium (>0.1 m² and < 1m²)

Expand to show TLE details & history
Last TLE update: 10 hours ago

TLE from 10 hours ago
0 PE2_FLT2 (TYVAK-0262)
1 59104U 24043G   26221.64878053  .00001878  00000-0  16647-3 0  9997
2 59104  97.8459 352.5046 0005210 207.8300 152.2643 14.97444465132654
Epoch: 2026-08-09T15:34Z
TLE epoch observation values (Epoch: 2026-08-09T15:34:14.637Z)
Latitude
-0.0001°
Longitude
160.80088°
Altitude
581.05 km
Speed
7.568 km/s
True Right ascension
23h 30m 01s
True Declination
0° 00' 00"
Sunlit
Object was in full shadow at epoch
Visualization orbit readout
Latitude
Unknown
Longitude
Unknown
Altitude
Unknown
Speed
Unknown
Apparent Right ascension
Unknown
Apparent Declination
Unknown
Sunlit
N/A
Visualization observer readout
Local Sidereal Time
15:25:31
Azimuth
Unknown
Elevation
Unknown
Doppler factor
Unknown
Orbital elements
Apogee altitude
575.432 km
Perigee altitude
568.19 km
Semi-major axis
6,949.948 km
Eccentricity
0.00052
Inclination
97.8459°
RAAN
352.5046°
Arg. of periapsis
207.83°
True anomaly
152.29207°
Mean anomaly
152.2643°
Eccentric anomaly
152.27819°
Mean motion
3.74603 °/min
Orbital period
96.1 mins
BSTAR
0.00016647
Loading maneuver chart data...
Computing Atmospheric mass density...
Loading historical data...
Loading historical data...
Loading historical data...
Loading historical data...
Loading historical data...
Loading historical data...
Loading historical data...

Documentation

Showing up to 5 results
|